This is the latest recevied weather packets stored in our database for station/object S54Z-11. If no packets are shown the sender has not sent any weather packets the latest 10 day(s).
| Time | Temp. | Humidity | Pressure | Rain* | Wind** | Luminosity | Snow |
|---|---|---|---|---|---|---|---|
| 1777552771 | 11.11° C | 33% | 1029.4 hPa | - | - | - | - |
| 1777551870 | 12.78° C | 33% | 1029.5 hPa | - | - | - | - |
| 1777550970 | 11.11° C | 32% | 1029.6 hPa | - | - | - | - |
| 1777550070 | 10.56° C | 32% | 1029.7 hPa | - | - | - | - |
| 1777549170 | 12.22° C | 41% | 1029.8 hPa | - | - | - | - |
| 1777548270 | 11.11° C | 37% | 1029.9 hPa | - | - | - | - |
| 1777547370 | 11.67° C | 37% | 1030 hPa | - | - | - | - |
| 1777546470 | 11.67° C | 40% | 1029.9 hPa | - | - | - | - |
| 1777545570 | 12.78° C | 38% | 1030.1 hPa | - | - | - | - |
| 1777544670 | 10.56° C | 37% | 1030.4 hPa | - | - | - | - |
| 1777543770 | 11.11° C | 37% | 1030.4 hPa | - | - | - | - |
| 1777542870 | 10.56° C | 38% | 1030.5 hPa | - | - | - | - |
| 1777541970 | 11.67° C | 37% | 1030.6 hPa | - | - | - | - |
| 1777541070 | 10.56° C | 37% | 1030.8 hPa | - | - | - | - |
| 1777540170 | 11.11° C | 37% | 1030.7 hPa | - | - | - | - |
| 1777539270 | 10° C | 38% | 1030.8 hPa | - | - | - | - |
| 1777538370 | 10.56° C | 38% | 1030.7 hPa | - | - | - | - |
| 1777537469 | 9.44° C | 38% | 1030.8 hPa | - | - | - | - |
| 1777535669 | 9.44° C | 40% | 1030.7 hPa | - | - | - | - |
| 1777534774 | 10.56° C | 37% | 1030.9 hPa | - | - | - | - |
| 1777533874 | 11.11° C | 38% | 1030.9 hPa | - | - | - | - |
| 1777532974 | 10.56° C | 36% | 1031 hPa | - | - | - | - |
| 1777532074 | 8.89° C | 38% | 1031 hPa | - | - | - | - |
| 1777531174 | 9.44° C | 40% | 1031 hPa | - | - | - | - |
| 1777530274 | 9.44° C | 39% | 1030.9 hPa | - | - | - | - |
* Rain since midnight (hover to see other rain measurements)
** Current wind speed in m/s (hover to see current wind gust speed)